Location: Peterborough
(44.3091°N, 78.3197°W)
Time: 07:04:05
(UTC-04:00)

Vanguard 2 - Pass Details

Date: 30 March 2023
Orbit: 552 x 2926 km, 32.9° (Epoch: 04 June)

Event Time Altitude Azimuth Distance (km) Brightness Sun altitude
Rises 10:10:32 0° 273° (W) 6,655 11.8 32.3°
Reaches altitude 10° 10:15:43 10° 267° (W) 5,444 11.5 33.1°
Maximum altitude 10:28:58 36° 209° (SSW) 2,962 10.9 35.1°
Drops below altitude 10° 10:38:04 10° 147° (SSE) 3,725 12.2 36.4°
Sets 10:40:55 0° 138° (SE) 4,404 12.4 36.8°
